TimeEST,TemperatureF,Dew PointF,Humidity,Sea Level PressureIn,VisibilityMPH,Wind Direction,Wind SpeedMPH,Gust SpeedMPH,PrecipitationIn,Events,Conditions,WindDirDegrees,DateUTC
12:53 AM,30.9,30.0,96,29.60,6.0,WNW,6.9,-,0.00,Snow,Light Snow,300,2013-03-02 05:53:00
1:05 AM,30.2,30.2,100,29.59,9.0,WNW,5.8,-,0.00,Snow,Light Snow,290,2013-03-02 06:05:00
1:53 AM,30.9,28.9,92,29.60,9.0,NW,8.1,-,0.00,,Overcast,310,2013-03-02 06:53:00
2:53 AM,30.9,28.9,92,29.59,10.0,WNW,6.9,-,N/A,,Overcast,300,2013-03-02 07:53:00
3:53 AM,30.0,28.0,92,29.59,10.0,NW,6.9,-,0.00,,Overcast,310,2013-03-02 08:53:00
4:53 AM,30.0,28.0,92,29.60,10.0,NW,9.2,-,N/A,,Overcast,320,2013-03-02 09:53:00
5:45 AM,30.2,28.4,93,29.58,10.0,NW,10.4,-,N/A,,Overcast,320,2013-03-02 10:45:00
5:53 AM,30.0,27.0,88,29.60,10.0,NNW,10.4,-,N/A,,Overcast,330,2013-03-02 10:53:00
6:53 AM,30.2,26.6,86,29.59,10.0,NW,11.5,-,N/A,,Overcast,320,2013-03-02 11:53:00
7:53 AM,30.0,27.0,88,29.60,10.0,NW,10.4,-,N/A,,Overcast,320,2013-03-02 12:53:00
8:53 AM,30.9,27.0,85,29.60,10.0,NW,12.7,-,N/A,,Overcast,320,2013-03-02 13:53:00
9:21 AM,32.0,28.4,87,29.59,2.0,NNW,12.7,-,0.00,Snow,Light Snow,330,2013-03-02 14:21:00
9:40 AM,32.0,28.4,87,29.59,1.2,NNW,12.7,-,0.00,Snow,Light Snow,330,2013-03-02 14:40:00
9:53 AM,32.0,28.4,87,29.59,1.2,NNW,10.4,-,N/A,Snow,Light Snow,330,2013-03-02 14:53:00
10:00 AM,32.0,28.4,87,29.59,1.8,NNW,13.8,-,0.00,Snow,Light Snow,330,2013-03-02 15:00:00
10:27 AM,32.0,28.4,87,29.59,5.0,NNW,13.8,-,0.00,Snow,Light Snow,330,2013-03-02 15:27:00
10:53 AM,33.1,28.9,85,29.60,3.0,NNW,11.5,-,0.00,Snow,Light Snow,330,2013-03-02 15:53:00
11:25 AM,33.8,30.2,87,29.59,5.0,NNW,13.8,-,0.00,Snow,Light Snow,330,2013-03-02 16:25:00
11:53 AM,33.1,30.0,89,29.59,10.0,NW,12.7,-,0.00,,Overcast,310,2013-03-02 16:53:00
12:53 PM,34.0,30.9,89,29.58,4.0,NNW,10.4,-,0.00,Rain-Snow,Light Rain,330,2013-03-02 17:53:00
1:53 PM,35.1,32.0,89,29.58,10.0,NW,9.2,-,0.00,,Overcast,320,2013-03-02 18:53:00
2:53 PM,35.1,33.1,92,29.57,4.0,NNW,9.2,-,0.00,Rain,Light Rain,340,2013-03-02 19:53:00
2:59 PM,35.6,33.8,93,29.57,5.0,NNW,10.4,-,0.00,Rain,Light Rain,330,2013-03-02 19:59:00
3:53 PM,35.1,33.1,92,29.59,10.0,NW,6.9,-,0.02,Rain,Light Rain,310,2013-03-02 20:53:00
4:12 PM,33.8,33.8,100,29.59,9.0,WNW,6.9,-,0.00,Rain,Light Rain,300,2013-03-02 21:12:00
4:53 PM,34.0,33.1,96,29.60,9.0,NW,6.9,-,0.01,Rain,Light Rain,310,2013-03-02 21:53:00
5:53 PM,34.0,33.1,96,29.62,8.0,NW,5.8,-,0.01,Rain,Light Rain,320,2013-03-02 22:53:00
6:43 PM,33.8,33.8,100,29.60,10.0,NNW,8.1,-,0.00,,Overcast,340,2013-03-02 23:43:00
6:53 PM,34.0,33.1,96,29.62,10.0,NNW,8.1,-,0.00,,Overcast,330,2013-03-02 23:53:00
7:53 PM,34.0,33.1,96,29.62,10.0,NNW,9.2,-,0.00,Rain,Light Rain,340,2013-03-03 00:53:00
8:11 PM,33.8,33.8,100,29.61,10.0,North,9.2,-,0.00,Rain,Light Rain,350,2013-03-03 01:11:00
8:38 PM,33.8,33.8,100,29.61,10.0,North,9.2,-,0.00,,Overcast,350,2013-03-03 01:38:00
8:53 PM,34.0,33.1,96,29.62,10.0,North,9.2,-,0.00,,Overcast,350,2013-03-03 01:53:00
9:53 PM,34.0,33.1,96,29.61,10.0,North,8.1,-,0.00,,Overcast,350,2013-03-03 02:53:00
10:19 PM,33.8,32.0,93,29.59,10.0,NNW,8.1,-,N/A,,Overcast,340,2013-03-03 03:19:00
10:53 PM,34.0,32.0,92,29.59,10.0,NNW,8.1,-,N/A,,Overcast,340,2013-03-03 03:53:00
11:03 PM,33.8,32.0,93,29.58,10.0,NNW,8.1,-,N/A,,Overcast,330,2013-03-03 04:03:00
11:53 PM,33.1,32.0,96,29.59,10.0,NW,5.8,-,N/A,,Overcast,320,2013-03-03 04:53:00